AWE8566 KIND-KBWI

Flight info

Callsign AWE8566
Flight time 1h 6m
Altitude 37000
Route MAREO5 BDOCK APE NUSMM ANTHM5
Aircraft A320/M-SDE3FGHIRWY/LB1

Departure

Time 2026-04-29 14:34
Airport Indianapolis International Airport (KIND)

Arrival

Time 2026-04-29 15:41
Airport Baltimore/Washington International Thurgood Marshall Airport (KBWI)
Time Latitude Longitude Altitude Speed Heading
2026-04-29 14:09 39.71817 -86.29567 789 ft 0 kts 279°
2026-04-29 14:23 39.71815 -86.29552 789 ft 3 kts 280°
2026-04-29 14:24 39.71811 -86.29526 789 ft 3 kts 286°
2026-04-29 14:24 39.71804 -86.29502 789 ft 3 kts 304°
2026-04-29 14:24 39.71794 -86.29488 789 ft 3 kts
2026-04-29 14:24 39.71789 -86.29488 789 ft 0 kts 39°
2026-04-29 14:27 39.71798 -86.29478 789 ft 5 kts 38°
2026-04-29 14:27 39.71829 -86.29448 789 ft 7 kts 31°
2026-04-29 14:28 39.71921 -86.29518 790 ft 10 kts 308°
2026-04-29 14:28 39.71972 -86.29601 789 ft 13 kts 309°
2026-04-29 14:28 39.72044 -86.29685 789 ft 15 kts 340°
2026-04-29 14:28 39.72119 -86.29625 788 ft 14 kts 36°
2026-04-29 14:29 39.72220 -86.29650 785 ft 19 kts 316°
2026-04-29 14:29 39.72208 -86.29786 787 ft 18 kts 224°
2026-04-29 14:29 39.72114 -86.29902 786 ft 20 kts 224°
2026-04-29 14:29 39.72008 -86.30039 787 ft 22 kts 225°
2026-04-29 14:30 39.71894 -86.30187 783 ft 23 kts 223°
2026-04-29 14:30 39.71773 -86.30338 783 ft 25 kts 225°
2026-04-29 14:30 39.71648 -86.30499 784 ft 23 kts 225°
2026-04-29 14:30 39.71534 -86.30643 785 ft 24 kts 222°
2026-04-29 14:31 39.71413 -86.30796 788 ft 25 kts 225°
2026-04-29 14:31 39.71283 -86.30964 786 ft 28 kts 224°
2026-04-29 14:31 39.71138 -86.31149 783 ft 31 kts 224°
2026-04-29 14:31 39.71034 -86.31281 784 ft 20 kts 224°
2026-04-29 14:32 39.70926 -86.31418 784 ft 23 kts 224°
2026-04-29 14:32 39.70813 -86.31562 787 ft 23 kts 224°
2026-04-29 14:32 39.70693 -86.31714 788 ft 25 kts 225°
2026-04-29 14:32 39.70570 -86.31872 786 ft 18 kts 224°
2026-04-29 14:33 39.70583 -86.31990 787 ft 14 kts 313°
2026-04-29 14:33 39.70668 -86.32046 787 ft 15 kts 26°
2026-04-29 14:33 39.70761 -86.31929 790 ft 37 kts 44°
2026-04-29 14:33 39.71128 -86.31473 785 ft 105 kts 44°
2026-04-29 14:34 39.71785 -86.30643 787 ft 156 kts 42°
2026-04-29 14:34 39.72592 -86.29641 1296 ft 163 kts 39°
2026-04-29 14:34 39.73452 -86.28596 1840 ft 174 kts 40°
2026-04-29 14:34 39.74366 -86.27474 2305 ft 188 kts 40°
2026-04-29 14:35 39.75309 -86.26197 2791 ft 205 kts 49°
2026-04-29 14:35 39.76071 -86.24517 3283 ft 230 kts 65°
2026-04-29 14:35 39.76543 -86.22390 3719 ft 259 kts 77°
2026-04-29 14:35 39.76778 -86.20014 4539 ft 270 kts 82°
2026-04-29 14:36 39.76952 -86.17545 5423 ft 278 kts 82°
2026-04-29 14:36 39.77144 -86.15013 6278 ft 285 kts 83°
2026-04-29 14:36 39.77297 -86.13303 6802 ft 290 kts 82°
2026-04-29 14:36 39.77566 -86.10673 7604 ft 297 kts 81°
2026-04-29 14:37 39.77875 -86.07987 8406 ft 304 kts 80°
2026-04-29 14:37 39.78213 -86.05248 9217 ft 311 kts 79°
2026-04-29 14:37 39.78572 -86.02446 9979 ft 318 kts 79°
2026-04-29 14:37 39.79081 -85.98527 10401 ft 347 kts 80°
2026-04-29 14:38 39.79361 -85.96387 10542 ft 363 kts 80°
2026-04-29 14:38 39.79796 -85.93060 10775 ft 383 kts 80°
2026-04-29 14:38 39.80243 -85.89605 11336 ft 391 kts 80°
2026-04-29 14:38 39.80689 -85.86099 11990 ft 396 kts 81°
2026-04-29 14:39 39.81139 -85.82545 12639 ft 401 kts 81°
2026-04-29 14:39 39.81591 -85.78946 13314 ft 405 kts 81°
2026-04-29 14:39 39.82044 -85.75307 13948 ft 410 kts 81°
2026-04-29 14:39 39.82503 -85.71615 14488 ft 416 kts 81°
2026-04-29 14:40 39.82971 -85.67870 15011 ft 422 kts 81°
2026-04-29 14:40 39.83447 -85.64071 15521 ft 429 kts 80°
2026-04-29 14:40 39.83928 -85.60218 16014 ft 435 kts 80°
2026-04-29 14:40 39.84416 -85.56304 16525 ft 441 kts 80°
2026-04-29 14:41 39.84911 -85.52341 17042 ft 447 kts 80°
2026-04-29 14:41 39.85409 -85.48321 17571 ft 453 kts 80°
2026-04-29 14:41 39.85903 -85.44297 18100 ft 460 kts 79°
2026-04-29 14:41 39.86413 -85.40164 18629 ft 464 kts 80°
2026-04-29 14:42 39.86926 -85.35998 19207 ft 468 kts 80°
2026-04-29 14:42 39.87439 -85.31794 19763 ft 472 kts 80°
2026-04-29 14:42 39.87951 -85.27559 20288 ft 476 kts 80°
2026-04-29 14:42 39.88432 -85.23281 20796 ft 480 kts 82°
2026-04-29 14:43 39.88790 -85.18947 21272 ft 484 kts 85°
2026-04-29 14:43 39.89039 -85.14553 21736 ft 487 kts 87°
2026-04-29 14:43 39.89224 -85.10131 22185 ft 491 kts 88°
2026-04-29 14:43 39.89393 -85.05679 22634 ft 495 kts 88°
2026-04-29 14:44 39.89575 -85.01185 23086 ft 497 kts 88°
2026-04-29 14:44 39.89781 -84.96675 23530 ft 501 kts 87°
2026-04-29 14:44 39.90016 -84.92139 23901 ft 504 kts 87°
2026-04-29 14:44 39.90268 -84.87574 24263 ft 507 kts 86°
2026-04-29 14:45 39.90529 -84.82983 24621 ft 509 kts 86°
2026-04-29 14:45 39.90788 -84.78369 24958 ft 512 kts 86°
2026-04-29 14:45 39.91040 -84.73718 25298 ft 515 kts 87°
2026-04-29 14:45 39.91282 -84.69050 25693 ft 517 kts 87°
2026-04-29 14:46 39.91513 -84.64374 26042 ft 519 kts 88°
2026-04-29 14:46 39.91742 -84.59672 26394 ft 521 kts 88°
2026-04-29 14:46 39.91971 -84.54953 26729 ft 523 kts 88°
2026-04-29 14:46 39.92202 -84.50215 27052 ft 526 kts 88°
2026-04-29 14:47 39.92435 -84.45466 27365 ft 529 kts 88°
2026-04-29 14:47 39.92672 -84.40650 27692 ft 531 kts 88°
2026-04-29 14:47 39.92906 -84.35836 28007 ft 534 kts 88°
2026-04-29 14:47 39.93135 -84.31047 28307 ft 536 kts 88°
2026-04-29 14:48 39.93365 -84.26198 28699 ft 536 kts 88°
2026-04-29 14:48 39.93774 -84.21357 29133 ft 538 kts 81°
2026-04-29 14:48 39.94444 -84.16571 29566 ft 537 kts 80°
2026-04-29 14:48 39.95112 -84.11777 30004 ft 537 kts 81°
2026-04-29 14:49 39.95776 -84.06977 30384 ft 537 kts 81°
2026-04-29 14:49 39.96434 -84.02191 30756 ft 537 kts 81°
2026-04-29 14:49 39.97091 -83.97392 31157 ft 536 kts 81°
2026-04-29 14:49 39.97741 -83.92611 31557 ft 535 kts 81°
2026-04-29 14:50 39.98387 -83.87825 31922 ft 535 kts 81°
2026-04-29 14:50 39.99023 -83.83110 32307 ft 535 kts 81°
2026-04-29 14:50 39.99666 -83.78328 32713 ft 535 kts 81°
2026-04-29 14:50 40.00307 -83.73563 33107 ft 534 kts 81°
2026-04-29 14:51 40.00948 -83.68781 33512 ft 534 kts 81°
2026-04-29 14:51 40.01585 -83.64013 33922 ft 533 kts 81°
2026-04-29 14:51 40.02220 -83.59252 34277 ft 533 kts 81°
2026-04-29 14:51 40.02854 -83.54482 34632 ft 532 kts 81°
2026-04-29 14:52 40.03487 -83.49714 34874 ft 534 kts 81°
2026-04-29 14:52 40.04123 -83.44919 35102 ft 536 kts 81°
2026-04-29 14:52 40.04752 -83.40128 35397 ft 536 kts 81°
2026-04-29 14:52 40.05376 -83.35328 35713 ft 536 kts 81°
2026-04-29 14:53 40.05997 -83.30536 36030 ft 535 kts 81°
2026-04-29 14:53 40.06618 -83.25749 36474 ft 532 kts 81°
2026-04-29 14:53 40.07233 -83.20992 36820 ft 531 kts 81°
2026-04-29 14:54 40.08458 -83.11460 36927 ft 534 kts 81°
2026-04-29 14:54 40.09686 -83.01931 36923 ft 535 kts 81°
2026-04-29 14:55 40.10924 -82.92278 36921 ft 535 kts 81°
2026-04-29 14:55 40.12133 -82.82743 36915 ft 536 kts 81°
2026-04-29 14:56 40.13336 -82.73130 36893 ft 536 kts 81°
2026-04-29 14:56 40.14531 -82.63505 36892 ft 537 kts 82°
2026-04-29 14:57 40.14812 -82.53796 36896 ft 532 kts 98°
2026-04-29 14:57 40.14230 -82.44202 36903 ft 533 kts 97°
2026-04-29 14:58 40.13656 -82.34542 36877 ft 534 kts 97°
2026-04-29 14:58 40.13072 -82.24803 36885 ft 534 kts 97°
2026-04-29 14:59 40.12479 -82.15183 36893 ft 534 kts 98°
2026-04-29 14:59 40.11863 -82.05496 36901 ft 535 kts 98°
2026-04-29 15:00 40.11244 -81.95811 36904 ft 535 kts 98°
2026-04-29 15:00 40.10621 -81.86120 36909 ft 536 kts 98°
2026-04-29 15:01 40.09986 -81.76426 36912 ft 536 kts 98°
2026-04-29 15:01 40.09345 -81.66732 36908 ft 535 kts 98°
2026-04-29 15:02 40.08698 -81.57038 36890 ft 536 kts 98°
2026-04-29 15:02 40.08045 -81.47407 36895 ft 536 kts 98°
2026-04-29 15:03 40.07375 -81.37701 36894 ft 536 kts 98°
2026-04-29 15:03 40.06706 -81.28014 36871 ft 536 kts 98°
2026-04-29 15:04 40.06026 -81.18301 36888 ft 536 kts 98°
2026-04-29 15:04 40.05332 -81.08600 36900 ft 536 kts 98°
2026-04-29 15:05 40.04629 -80.98902 36906 ft 536 kts 98°
2026-04-29 15:05 40.03926 -80.89279 36894 ft 536 kts 98°
2026-04-29 15:06 40.02901 -80.79674 36897 ft 531 kts 109°
2026-04-29 15:06 40.00885 -80.70437 36906 ft 529 kts 111°
2026-04-29 15:07 39.98844 -80.61208 36908 ft 529 kts 111°
2026-04-29 15:07 39.96795 -80.51989 36896 ft 529 kts 111°
2026-04-29 15:08 39.94739 -80.42756 36894 ft 531 kts 111°
2026-04-29 15:08 39.92664 -80.33505 36896 ft 532 kts 111°
2026-04-29 15:09 39.90591 -80.24247 36902 ft 533 kts 111°
2026-04-29 15:09 39.88505 -80.14976 36911 ft 533 kts 111°
2026-04-29 15:10 39.86407 -80.05723 36944 ft 533 kts 111°
2026-04-29 15:10 39.84429 -79.96470 36950 ft 535 kts 109°
2026-04-29 15:11 39.82659 -79.87063 36951 ft 535 kts 108°
2026-04-29 15:11 39.80909 -79.77638 36937 ft 535 kts 108°
2026-04-29 15:12 39.79075 -79.68265 36720 ft 535 kts 109°
2026-04-29 15:12 39.78455 -79.65168 36544 ft 534 kts 109°
2026-04-29 15:12 39.77198 -79.58907 36200 ft 534 kts 109°
2026-04-29 15:12 39.76233 -79.54254 35946 ft 534 kts 110°
2026-04-29 15:13 39.75218 -79.49613 35696 ft 533 kts 111°
2026-04-29 15:13 39.74171 -79.44987 35446 ft 533 kts 111°
2026-04-29 15:13 39.73107 -79.40368 35200 ft 534 kts 111°
2026-04-29 15:13 39.72042 -79.35743 34729 ft 535 kts 111°
2026-04-29 15:14 39.70992 -79.31139 33833 ft 541 kts 111°
2026-04-29 15:14 39.69932 -79.26440 32839 ft 545 kts 111°
2026-04-29 15:14 39.68879 -79.21727 32038 ft 541 kts 111°
2026-04-29 15:14 39.67819 -79.16970 31094 ft 539 kts 110°
2026-04-29 15:15 39.66790 -79.12372 30197 ft 536 kts 111°
2026-04-29 15:15 39.65748 -79.07738 29064 ft 533 kts 110°
2026-04-29 15:15 39.64723 -79.03119 28028 ft 531 kts 110°
2026-04-29 15:15 39.63729 -78.98554 27727 ft 524 kts 109°
2026-04-29 15:16 39.62750 -78.94015 27448 ft 522 kts 109°
2026-04-29 15:16 39.61769 -78.89476 26961 ft 522 kts 109°
2026-04-29 15:16 39.60783 -78.84946 26510 ft 521 kts 110°
2026-04-29 15:16 39.59794 -78.80433 26045 ft 519 kts 110°
2026-04-29 15:17 39.58811 -78.75955 25584 ft 514 kts 110°
2026-04-29 15:17 39.57832 -78.71512 25060 ft 511 kts 110°
2026-04-29 15:17 39.56859 -78.67108 24613 ft 507 kts 109°
2026-04-29 15:17 39.56216 -78.64209 24313 ft 504 kts 109°
2026-04-29 15:18 39.54930 -78.58394 23573 ft 499 kts 109°
2026-04-29 15:18 39.53992 -78.54075 22660 ft 495 kts 109°
2026-04-29 15:18 39.53085 -78.49812 21942 ft 487 kts 108°
2026-04-29 15:18 39.52197 -78.45609 21195 ft 480 kts 108°
2026-04-29 15:19 39.51324 -78.41466 20472 ft 474 kts 108°
2026-04-29 15:19 39.50451 -78.37378 19744 ft 467 kts 108°
2026-04-29 15:19 39.49563 -78.33362 19027 ft 461 kts 109°
2026-04-29 15:19 39.48681 -78.29459 18342 ft 455 kts 109°
2026-04-29 15:20 39.47788 -78.25551 17714 ft 448 kts 109°
2026-04-29 15:20 39.46916 -78.21755 17574 ft 431 kts 109°
2026-04-29 15:20 39.46080 -78.18097 17443 ft 416 kts 109°
2026-04-29 15:20 39.45350 -78.14546 17285 ft 402 kts 103°
2026-04-29 15:21 39.45075 -78.10973 16899 ft 397 kts 92°
2026-04-29 15:21 39.45083 -78.07420 16457 ft 393 kts 91°
2026-04-29 15:21 39.45093 -78.03900 15982 ft 389 kts 91°
2026-04-29 15:21 39.45099 -78.00412 15510 ft 386 kts 91°
2026-04-29 15:22 39.45102 -77.96952 15054 ft 383 kts 91°
2026-04-29 15:22 39.45099 -77.93517 14686 ft 379 kts 91°
2026-04-29 15:22 39.45092 -77.90114 14408 ft 378 kts 91°
2026-04-29 15:22 39.45085 -77.86722 14114 ft 376 kts 91°
2026-04-29 15:23 39.45081 -77.83391 13826 ft 374 kts 92°
2026-04-29 15:23 39.45076 -77.79995 13508 ft 372 kts 92°
2026-04-29 15:23 39.45068 -77.76703 13235 ft 370 kts 92°
2026-04-29 15:23 39.45058 -77.73391 12949 ft 367 kts 92°
2026-04-29 15:24 39.45037 -77.70106 12838 ft 365 kts 92°
2026-04-29 15:24 39.45005 -77.66823 12733 ft 364 kts 92°
2026-04-29 15:24 39.44968 -77.63548 12610 ft 363 kts 92°
2026-04-29 15:24 39.44930 -77.60285 12486 ft 362 kts 92°
2026-04-29 15:25 39.44891 -77.57034 12359 ft 359 kts 92°
2026-04-29 15:25 39.44854 -77.53814 12242 ft 356 kts 92°
2026-04-29 15:25 39.44820 -77.50618 12122 ft 355 kts 92°
2026-04-29 15:25 39.44786 -77.47431 11996 ft 353 kts 92°
2026-04-29 15:26 39.44750 -77.44254 11876 ft 352 kts 92°
2026-04-29 15:26 39.44725 -77.42157 11793 ft 352 kts 92°
2026-04-29 15:26 39.44674 -77.37974 11631 ft 350 kts 92°
2026-04-29 15:26 39.44659 -77.34825 11507 ft 349 kts 90°
2026-04-29 15:27 39.44736 -77.31690 11383 ft 347 kts 88°
2026-04-29 15:27 39.44868 -77.28626 11256 ft 335 kts 87°
2026-04-29 15:27 39.45015 -77.25673 11130 ft 323 kts 87°
2026-04-29 15:27 39.45155 -77.22818 10943 ft 314 kts 87°
2026-04-29 15:28 39.45242 -77.20956 10806 ft 311 kts 87°
2026-04-29 15:28 39.45369 -77.18178 10518 ft 308 kts 87°
2026-04-29 15:28 39.45489 -77.15422 10197 ft 305 kts 87°
2026-04-29 15:28 39.45602 -77.12717 9868 ft 298 kts 87°
2026-04-29 15:29 39.45713 -77.10048 9547 ft 296 kts 87°
2026-04-29 15:29 39.45919 -77.04772 8938 ft 291 kts 88°
2026-04-29 15:30 39.46116 -76.99588 8339 ft 286 kts 89°
2026-04-29 15:30 39.46215 -76.97026 8048 ft 283 kts 89°
2026-04-29 15:30 39.46312 -76.94484 7756 ft 281 kts 89°
2026-04-29 15:30 39.46390 -76.91964 7466 ft 279 kts 94°
2026-04-29 15:31 39.45988 -76.89562 7182 ft 271 kts 117°
2026-04-29 15:31 39.44950 -76.87587 6856 ft 264 kts 138°
2026-04-29 15:31 39.43467 -76.86265 6231 ft 261 kts 161°
2026-04-29 15:31 39.41776 -76.85670 6049 ft 243 kts 170°
2026-04-29 15:32 39.40196 -76.85196 6008 ft 222 kts 169°
2026-04-29 15:32 39.38753 -76.84754 6009 ft 210 kts 169°
2026-04-29 15:32 39.37332 -76.84321 6014 ft 208 kts 169°
2026-04-29 15:32 39.35908 -76.83889 6030 ft 217 kts 169°
2026-04-29 15:33 39.34426 -76.83529 6020 ft 216 kts 179°
2026-04-29 15:33 39.32943 -76.83758 6019 ft 214 kts 198°
2026-04-29 15:33 39.31579 -76.84355 5999 ft 201 kts 199°
2026-04-29 15:33 39.30256 -76.84938 5620 ft 202 kts 202°
2026-04-29 15:34 39.29071 -76.85870 5130 ft 199 kts 219°
2026-04-29 15:34 39.28195 -76.87236 4662 ft 197 kts 234°
2026-04-29 15:34 39.27416 -76.88661 4178 ft 192 kts 230°
2026-04-29 15:34 39.26617 -76.90020 3697 ft 189 kts 229°
2026-04-29 15:35 39.25836 -76.91365 3231 ft 186 kts 228°
2026-04-29 15:35 39.25048 -76.92666 2752 ft 183 kts 218°
2026-04-29 15:35 39.23939 -76.93413 2261 ft 182 kts 189°
2026-04-29 15:35 39.22718 -76.93248 2066 ft 173 kts 159°
2026-04-29 15:36 39.21772 -76.92306 2147 ft 176 kts 130°
2026-04-29 15:36 39.21174 -76.90922 2231 ft 177 kts 123°
2026-04-29 15:36 39.20601 -76.89519 2286 ft 177 kts 123°
2026-04-29 15:36 39.20029 -76.88119 2307 ft 177 kts 123°
2026-04-29 15:37 39.19456 -76.86718 2312 ft 177 kts 124°
2026-04-29 15:37 39.18880 -76.85310 2307 ft 178 kts 123°
2026-04-29 15:37 39.18364 -76.83853 2312 ft 182 kts 111°
2026-04-29 15:37 39.18210 -76.82211 2203 ft 185 kts 100°
2026-04-29 15:38 39.18126 -76.80594 2002 ft 176 kts 100°
2026-04-29 15:38 39.18044 -76.79061 1779 ft 167 kts 101°
2026-04-29 15:38 39.17967 -76.77645 1579 ft 150 kts 101°
2026-04-29 15:38 39.17894 -76.76344 1371 ft 144 kts 101°
2026-04-29 15:39 39.17822 -76.75089 1183 ft 139 kts 100°
2026-04-29 15:39 39.17745 -76.73841 971 ft 140 kts 98°
2026-04-29 15:39 39.17703 -76.72591 798 ft 140 kts 95°
2026-04-29 15:39 39.17651 -76.71342 631 ft 140 kts 104°
2026-04-29 15:40 39.17540 -76.70103 442 ft 139 kts 101°
2026-04-29 15:40 39.17469 -76.68847 232 ft 141 kts 96°
2026-04-29 15:40 39.17391 -76.67626 158 ft 124 kts 92°
2026-04-29 15:40 39.17348 -76.66713 158 ft 83 kts 93°
2026-04-29 15:41 39.17316 -76.66141 150 ft 43 kts 92°
2026-04-29 15:41 39.17323 -76.65919 153 ft 14 kts 37°
2026-04-29 15:41 39.17432 -76.65905 151 ft 18 kts 355°
2026-04-29 15:41 39.17560 -76.65924 151 ft 20 kts 360°
2026-04-29 15:42 39.17661 -76.66006 152 ft 20 kts 292°
2026-04-29 15:42 39.17725 -76.66179 154 ft 22 kts 297°
2026-04-29 15:42 39.17802 -76.66312 156 ft 17 kts 344°
2026-04-29 15:42 39.17912 -76.66336 157 ft 12 kts 340°
2026-04-29 15:43 39.17938 -76.66420 159 ft 5 kts 272°
2026-04-29 15:43 39.17939 -76.66434 159 ft 0 kts 274°